Laredo, TX

9:22 PM CST on December 09, 2016 (GMT -0600)
Laredo International

Weather History for KLRD - September, 2013

Change the Weather History Date:

Sunday, September 8, 2013

  Actual Average Record
Temperature  
Mean Temperature 85 °F 85 °F  
Max Temperature 95 °F 95 °F 104 °F (1992)
Min Temperature 75 °F 75 °F 55 °F (1974)
Degree Days  
Heating Degree Days 0 0  
Month to date heating degree days 0 0  
Since 1 July heating degree days 0 0  
Cooling Degree Days 20 20  
Month to date cooling degree days 173 166  
Year to date cooling degree days 3581 3409  
Growing Degree Days 33 (Base 50)    
Moisture  
Dew Point 71 °F    
Average Humidity 74    
Maximum Humidity 94    
Minimum Humidity 46    
Precipitation  
Precipitation 0.06 in 0.10 in 2.10 in (1923)
Month to date precipitation 0.18 0.87  
Year to date precipitation 11.94 13.86  
Sea Level Pressure  
Sea Level Pressure 29.91 in    
Wind  
Wind Speed 8 mph (ESE)    
Max Wind Speed 31 mph    
Max Gust Speed 35 mph    
Visibility 10 miles    
Events      
T = Trace of Precipitation, MM = Missing Value Source: NWS Daily Summary

Daily Weather History Graph

Daily Weather History Graph

Search for Another Location

Airport or City:

Trip Planner

Search our weather history database for the weather conditions in past years. The results will help you decide how hot, cold, wet, or windy it might be!

Date:

Astronomy

Sep. 08, 2013 Rise Set
Actual Time 7:20 AM CDT 7:50 PM CDT
Civil Twilight 6:56 AM CDT 8:13 PM CDT
Nautical Twilight 6:28 AM CDT 8:41 PM CDT
Astronomical Twilight 6:01 AM CDT 9:09 PM CDT
Moon 10:17 AM CDT (9/8) 9:50 PM CDT (9/8)
Length of Visible Light 13h 17m
Length of Day
12h 30m
Waxing Crescent, 11% of the Moon is Illuminated
Sep 8
Waxing Crescent
Sep 12
First Quarter
Sep 19
Full
Sep 26
Last Quarter
Oct 4
New

Hourly Weather History & Observations

Time (CDT) Temp. Heat Index Dew Point Humidity Pressure Visibility Wind Dir Wind Speed Gust Speed Precip Events Conditions
12:56 AM 79.0 °F - 72.0 °F 79% 29.93 in 10.0 mi SE 6.9 mph - N/A   Clear
1:56 AM 77.9 °F - 72.0 °F 82% 29.91 in 10.0 mi SE 6.9 mph - N/A   Partly Cloudy
2:56 AM 77.0 °F - 72.9 °F 87% 29.91 in 10.0 mi ESE 6.9 mph - N/A   Clear
3:56 AM 77.0 °F - 72.9 °F 87% 29.91 in 10.0 mi East 3.5 mph - N/A   Clear
4:56 AM 75.9 °F - 72.9 °F 90% 29.91 in 10.0 mi East 5.8 mph - N/A   Clear
5:56 AM 74.8 °F - 72.9 °F 94% 29.91 in 10.0 mi Calm Calm - N/A   Clear
6:56 AM 74.8 °F - 72.9 °F 94% 29.91 in 10.0 mi ESE 5.8 mph - N/A   Clear
7:14 AM 75.2 °F - 73.4 °F 94% 29.95 in 10.0 mi East 5.8 mph - N/A   Mostly Cloudy
7:56 AM 75.9 °F - 73.9 °F 94% 29.92 in 10.0 mi Calm Calm - N/A   Mostly Cloudy
8:11 AM 77.0 °F - 73.4 °F 89% 29.96 in 10.0 mi SE 5.8 mph - N/A   Mostly Cloudy
8:19 AM 77.0 °F - 73.4 °F 89% 29.96 in 10.0 mi SE 5.8 mph - N/A   Partly Cloudy
8:49 AM 78.8 °F - 73.4 °F 83% 29.97 in 10.0 mi ESE 5.8 mph - N/A   Mostly Cloudy
8:56 AM 79.0 °F - 73.9 °F 84% 29.93 in 10.0 mi ESE 6.9 mph - N/A   Scattered Clouds
9:30 AM 80.6 °F 85.4 °F 73.4 °F 79% 29.98 in 10.0 mi ESE 8.1 mph - N/A   Mostly Cloudy
9:41 AM 80.6 °F 85.4 °F 73.4 °F 79% 29.98 in 10.0 mi SE 3.5 mph - N/A   Partly Cloudy
9:56 AM 81.0 °F 85.6 °F 72.9 °F 76% 29.94 in 10.0 mi Calm Calm - N/A   Mostly Cloudy
10:11 AM 82.4 °F 87.2 °F 71.6 °F 70% 29.98 in 10.0 mi SE 5.8 mph - N/A   Scattered Clouds
10:56 AM 84.9 °F 90.1 °F 70.9 °F 63% 29.94 in 10.0 mi ESE 3.5 mph - N/A   Partly Cloudy
11:56 AM 88.0 °F 92.1 °F 68.9 °F 53% 29.93 in 10.0 mi Variable 4.6 mph - N/A   Scattered Clouds
12:56 PM 90.9 °F 94.8 °F 68.0 °F 47% 29.90 in 10.0 mi ENE 9.2 mph - N/A   Partly Cloudy
1:56 PM 91.9 °F 95.9 °F 68.0 °F 45% 29.88 in 10.0 mi Variable 6.9 mph - N/A   Scattered Clouds
2:56 PM 92.8 °F 97.1 °F 68.0 °F 44% 29.85 in 10.0 mi ESE 8.1 mph - N/A   Mostly Cloudy
3:56 PM 83.8 °F 87.5 °F 68.9 °F 61% 29.86 in 10.0 mi East 16.1 mph 26.5 mph 0.00 in   Partly Cloudy
4:56 PM 86.0 °F 91.1 °F 70.9 °F 60% 29.84 in 10.0 mi ENE 12.7 mph - N/A   Clear
5:56 PM 86.9 °F 92.5 °F 70.9 °F 59% 29.84 in 10.0 mi ENE 12.7 mph - N/A   Clear
6:56 PM 88.0 °F 91.4 °F 68.0 °F 51% 29.84 in 10.0 mi SE 17.3 mph - N/A   Clear
7:56 PM 84.9 °F 88.8 °F 68.9 °F 59% 29.86 in 10.0 mi ESE 15.0 mph - N/A   Clear
8:56 PM 82.9 °F 87.0 °F 70.0 °F 65% 29.88 in 10.0 mi East 15.0 mph - N/A   Clear
9:56 PM 81.0 °F 84.7 °F 70.9 °F 71% 29.90 in 10.0 mi East 9.2 mph - N/A   Clear
10:56 PM 79.9 °F - 70.9 °F 74% 29.91 in 10.0 mi East 8.1 mph - N/A   Clear
11:56 PM 77.9 °F - 70.9 °F 79% 29.89 in 10.0 mi East 5.8 mph - N/A   Clear